Location: Caltech
(34.1382°N, 118.1253°W)
Time: 13:53:54
(UTC-07:00)

ADEOS II - Visible Passes

Search period start: 21 July 2017 00:00
Search period end: 31 July 2017 00:00
Orbit: 800 x 801 km, 98.4° (Epoch: 20 July)

Date Brightness Start Highest point End Pass type
(mag) Time Alt. Az. Time Alt. Az. Time Alt. Az.
21 Jul 4.6 03:18:01 10° ENE 03:20:46 14° E 03:23:32 10° SE visible
21 Jul 2.3 04:55:38 10° N 05:00:47 56° WNW 05:05:54 10° SSW visible
22 Jul 2.2 04:29:09 10° NNE 04:34:26 80° ESE 04:39:25 11° S visible
23 Jul 3.1 04:02:59 10° NNE 04:08:00 43° E 04:12:38 12° S visible
24 Jul 4.0 03:37:17 10° NE 03:41:27 23° E 03:45:35 10° SSE visible
24 Jul 2.9 05:16:26 10° N 05:21:10 35° WNW 05:25:53 10° SW visible
25 Jul 4.6 03:12:41 10° ENE 03:14:49 12° E 03:16:56 10° ESE visible
25 Jul 2.1 04:49:42 10° N 04:54:54 64° WNW 05:00:00 10° SSW visible
26 Jul 2.3 04:23:16 10° NNE 04:28:32 71° ESE 04:33:13 13° S visible
27 Jul 3.3 03:57:12 10° NNE 04:02:04 38° E 04:06:25 12° SSE visible
28 Jul 4.2 03:31:38 10° NE 03:35:31 21° E 03:39:23 10° SE visible
28 Jul 2.7 05:10:27 10° N 05:15:18 39° WNW 05:20:09 10° SW visible
29 Jul 4.8 03:07:46 10° ENE 03:08:52 11° E 03:09:57 10° ESE visible
29 Jul 2.1 04:43:46 10° N 04:49:01 72° WNW 04:53:48 12° SSW visible
30 Jul 2.5 04:17:25 10° NNE 04:22:38 62° E 04:27:00 15° S visible
